Oakland, CA

12:17 AM PDT on July 27, 2017 (GMT -0700)
Metro Oakland International

Weather History for KOAK - May, 2014

Change the Weather History Date:

Sunday, May 25, 2014

  Actual Average Record
Temperature  
Mean Temperature 65 °F 60 °F  
Max Temperature 73 °F 68 °F 94 °F (1951)
Min Temperature 56 °F 52 °F 45 °F (1955)
Degree Days  
Heating Degree Days 0 5  
Month to date heating degree days 61 152  
Since 1 July heating degree days 2248 2738  
Cooling Degree Days 0 0  
Month to date cooling degree days 31 0  
Year to date cooling degree days 44 6  
Growing Degree Days 14 (Base 50)    
Moisture  
Dew Point 49 °F    
Average Humidity 61    
Maximum Humidity 77    
Minimum Humidity 44    
Precipitation  
Precipitation 0.00 in 0.02 in 0.29 in (2010)
Month to date precipitation T 0.60  
Year to date precipitation 7.98 12.96  
Since 1 July precipitation 10.05  
Sea Level Pressure  
Sea Level Pressure 29.96 in    
Wind  
Wind Speed 8 mph (WSW)    
Max Wind Speed 17 mph    
Max Gust Speed 20 mph    
Visibility 10 miles    
Events      
T = Trace of Precipitation, MM = Missing Value Source: NWS Daily Summary

Daily Weather History Graph

Daily Weather History Graph

Search for Another Location

Airport or City:

Trip Planner

Search our weather history database for the weather conditions in past years. The results will help you decide how hot, cold, wet, or windy it might be!

Date:

Astronomy

May. 25, 2014 Rise Set
Actual Time 5:52 AM PDT 8:20 PM PDT
Civil Twilight 5:21 AM PDT 8:50 PM PDT
Nautical Twilight 4:44 AM PDT 9:27 PM PDT
Astronomical Twilight 4:03 AM PDT 10:09 PM PDT
Moon 3:56 AM PDT (5/25) 5:29 PM PDT (5/25)
Length of Visible Light 15h 28m
Length of Day
14h 28m
Waning Crescent, 10% of the Moon is Illuminated
May 25
Waning Crescent
May 28
New
Jun 5
First Quarter
Jun 12
Full
Jun 19
Last Quarter

Hourly Weather History & Observations

Time (PDT) Temp. Dew Point Humidity Pressure Visibility Wind Dir Wind Speed Gust Speed Precip Events Conditions
12:53 AM 55.9 °F 48.9 °F 77% 29.98 in 10.0 mi WSW 16.1 mph - N/A   Clear
1:53 AM 57.0 °F 50.0 °F 77% 29.97 in 10.0 mi SW 10.4 mph - N/A   Clear
2:53 AM 57.0 °F 50.0 °F 77% 29.96 in 10.0 mi SW 9.2 mph - N/A   Clear
3:53 AM 57.0 °F 50.0 °F 77% 29.96 in 10.0 mi SW 6.9 mph - N/A   Clear
4:53 AM 55.9 °F 48.9 °F 77% 29.96 in 10.0 mi SW 12.7 mph - N/A   Partly Cloudy
5:53 AM 57.0 °F 48.9 °F 74% 29.96 in 10.0 mi SW 8.1 mph - N/A   Scattered Clouds
6:53 AM 57.0 °F 48.9 °F 74% 29.97 in 10.0 mi SW 8.1 mph - N/A   Mostly Cloudy
7:53 AM 59.0 °F 50.0 °F 72% 29.98 in 10.0 mi South 3.5 mph - N/A   Scattered Clouds
8:53 AM 61.0 °F 51.1 °F 70% 29.99 in 10.0 mi Calm Calm - N/A   Scattered Clouds
9:53 AM 64.0 °F 52.0 °F 65% 30.00 in 10.0 mi South 3.5 mph - N/A   Scattered Clouds
10:53 AM 66.0 °F 48.9 °F 54% 29.99 in 10.0 mi WSW 5.8 mph - N/A   Scattered Clouds
11:53 AM 70.0 °F 51.1 °F 51% 29.98 in 10.0 mi West 9.2 mph - N/A   Partly Cloudy
12:53 PM 72.0 °F 50.0 °F 46% 29.97 in 10.0 mi West 13.8 mph - N/A   Partly Cloudy
1:53 PM 72.0 °F 50.0 °F 46% 29.96 in 10.0 mi West 13.8 mph - N/A   Partly Cloudy
2:53 PM 71.1 °F 50.0 °F 47% 29.96 in 10.0 mi West 12.7 mph - N/A   Partly Cloudy
3:53 PM 71.1 °F 48.9 °F 45% 29.94 in 10.0 mi West 12.7 mph - N/A   Partly Cloudy
4:53 PM 70.0 °F 48.0 °F 46% 29.94 in 10.0 mi West 13.8 mph - N/A   Partly Cloudy
5:53 PM 68.0 °F 48.9 °F 50% 29.93 in 10.0 mi SW 6.9 mph - N/A   Partly Cloudy
6:53 PM 70.0 °F 48.0 °F 46% 29.92 in 10.0 mi WSW 9.2 mph - N/A   Partly Cloudy
7:53 PM 66.0 °F 48.9 °F 54% 29.93 in 10.0 mi West 10.4 mph - N/A   Partly Cloudy
8:53 PM 64.0 °F 48.9 °F 58% 29.94 in 10.0 mi West 5.8 mph - N/A   Partly Cloudy
9:53 PM 61.0 °F 50.0 °F 67% 29.95 in 10.0 mi WNW 4.6 mph - N/A   Clear
10:53 PM 61.0 °F 48.9 °F 64% 29.95 in 10.0 mi SW 6.9 mph - N/A   Clear
11:53 PM 57.9 °F 48.0 °F 70% 29.96 in 10.0 mi ESE 4.6 mph - N/A   Clear